Sparta, TN

2:31 AM CST on December 11, 2019 (GMT -0600)
Upper Cumberland Regional

Weather History for KSRB - October, 2019

Change the Weather History Date:

Monday, October 28, 2019

  Actual Average (KCSV) Record (KCSV)
Temperature  
Mean Temperature 55 °F -  
Max Temperature 69 °F 65 °F 80 °F (1991)
Min Temperature 41 °F 41 °F 20 °F (1957)
Degree Days  
Heating Degree Days 10    
Growing Degree Days 5 (Base 50)    
Moisture  
Dew Point 49 °F    
Average Humidity 91    
Maximum Humidity 100    
Minimum Humidity 64    
Precipitation  
Precipitation 0.00 in - - ()
Sea Level Pressure  
Sea Level Pressure 30.08 in    
Wind  
Wind Speed 1 mph ()    
Max Wind Speed 8 mph    
Max Gust Speed 13 mph    
Visibility 4.1 miles    
Events Fog    
Averages and records for this station are not official NWS values.
T = Trace of Precipitation, MM = Missing Value Source: Averaged Metar Reports

Daily Weather History Graph

Daily Weather History Graph

Search for Another Location

Airport or City:

Astronomy

Oct. 28, 2019 Rise Set
Actual Time 7:00 AM CDT 5:50 PM CDT
Civil Twilight 6:34 AM CDT 6:16 PM CDT
Nautical Twilight 6:04 AM CDT 6:47 PM CDT
Astronomical Twilight 5:34 AM CDT 7:16 PM CDT
Moon 7:22 AM CDT (10/28) 6:35 PM CDT (10/28)
Length of Visible Light 11h 42m
Length of Day
10h 49m
New Moon, 0% of the Moon is Illuminated
Oct 28
New Moon
Nov 4
First Quarter
Nov 12
Full
Nov 19
Last Quarter
Nov 26
New

Hourly Weather History & Observations

Time (CDT) Temp. Dew Point Humidity Pressure Visibility Wind Dir Wind Speed Gust Speed Precip Events Conditions
12:15 AM 42.8 °F 42.8 °F 100% 30.07 in 0.2 mi Calm Calm - N/A Fog Fog
12:35 AM 41.0 °F 41.0 °F 100% 30.07 in 0.8 mi Calm Calm - N/A   Mostly Cloudy
12:55 AM 41.0 °F 41.0 °F 100% 30.08 in 0.8 mi Calm Calm - N/A   Mostly Cloudy
1:15 AM 42.8 °F 41.0 °F 93% 30.08 in 1.8 mi Calm Calm - N/A   Overcast
1:35 AM 42.8 °F 42.8 °F 100% 30.08 in 0.2 mi Calm Calm - N/A Fog Fog
1:55 AM 42.8 °F 42.8 °F 100% 30.08 in 0.2 mi Calm Calm - N/A Fog Fog
2:15 AM 44.6 °F 44.6 °F 100% 30.08 in 0.2 mi Calm Calm - N/A Fog Fog
2:35 AM 42.8 °F 42.8 °F 100% 30.08 in 0.2 mi Calm Calm - N/A Fog Fog
2:55 AM 42.8 °F 41.0 °F 93% 30.09 in 0.2 mi Calm Calm - N/A Fog Fog
3:15 AM 41.0 °F 41.0 °F 100% 30.08 in 0.2 mi Calm Calm - N/A Fog Fog
3:35 AM 41.0 °F 41.0 °F 100% 30.08 in 1.0 mi Calm Calm - N/A   Overcast
3:55 AM 41.0 °F 41.0 °F 100% 30.08 in 0.5 mi Calm Calm - N/A Fog Fog
4:15 AM 41.0 °F 41.0 °F 100% 30.08 in 0.5 mi Calm Calm - N/A   Overcast
4:35 AM 41.0 °F 41.0 °F 100% 30.08 in 0.2 mi Calm Calm - N/A Fog Fog
4:55 AM 41.0 °F 41.0 °F 100% 30.09 in 0.2 mi Calm Calm - N/A Fog Fog
5:15 AM 41.0 °F 41.0 °F 100% 30.09 in 0.8 mi Calm Calm - N/A   Overcast
5:35 AM 41.0 °F 41.0 °F 100% 30.08 in 0.8 mi Calm Calm - N/A   Overcast
5:55 AM 41.0 °F 41.0 °F 100% 30.08 in 0.2 mi Calm Calm - N/A Fog Fog
6:15 AM 41.0 °F 41.0 °F 100% 30.08 in 0.2 mi Calm Calm - N/A Fog Fog
6:35 AM 41.0 °F 41.0 °F 100% 30.09 in 0.2 mi Calm Calm - N/A Fog Fog
6:55 AM 42.8 °F 42.8 °F 100% 30.10 in 0.2 mi Calm Calm - N/A Fog Fog
7:15 AM 42.8 °F 42.8 °F 100% 30.10 in 0.2 mi Calm Calm - N/A Fog Fog
7:35 AM 42.8 °F 42.8 °F 100% 30.10 in 0.2 mi Calm Calm - N/A Fog Fog
7:55 AM 42.8 °F 42.8 °F 100% 30.11 in 0.2 mi Calm Calm - N/A Fog Fog
8:15 AM 44.6 °F 44.6 °F 100% 30.12 in 0.5 mi Calm Calm - N/A   Overcast
8:35 AM 44.6 °F 44.6 °F 100% 30.12 in 0.2 mi Calm Calm - N/A Fog Fog
8:55 AM 46.4 °F 46.4 °F 100% 30.12 in 0.2 mi Calm Calm - N/A Fog Fog
9:15 AM 46.4 °F 46.4 °F 100% 30.12 in 0.2 mi Calm Calm - N/A Fog Fog
9:35 AM 48.2 °F 48.2 °F 100% 30.12 in 0.2 mi Calm Calm - N/A Fog Fog
10:15 AM 50.0 °F 50.0 °F 100% 30.12 in 0.2 mi Calm Calm - N/A Fog Fog
10:25 AM 51.8 °F 50.0 °F 94% 30.12 in 0.2 mi Calm Calm - N/A Fog Fog
11:35 AM 57.2 °F 53.6 °F 88% 30.11 in 10.0 mi Variable 3.5 mph - N/A   Mostly Cloudy
11:55 AM 59.0 °F 53.6 °F 82% 30.10 in 10.0 mi Calm Calm - N/A   Partly Cloudy
12:15 PM 60.8 °F 53.6 °F 77% 30.08 in 10.0 mi Calm Calm - N/A   Clear
12:35 PM 62.6 °F 53.6 °F 72% 30.07 in 10.0 mi Calm Calm - N/A   Clear
12:55 PM 64.4 °F 55.4 °F 73% 30.05 in 10.0 mi Calm Calm - N/A   Clear
1:15 PM 66.2 °F 55.4 °F 68% 30.05 in 10.0 mi Calm Calm - N/A   Clear
1:35 PM 68.0 °F 57.2 °F 68% 30.04 in 10.0 mi Variable 5.8 mph - N/A   Clear
1:55 PM 68.0 °F 57.2 °F 68% 30.03 in 10.0 mi Calm Calm - N/A   Clear
2:15 PM 69.8 °F 57.2 °F 64% 30.03 in 10.0 mi WNW 5.8 mph - N/A   Clear
2:35 PM 69.8 °F 57.2 °F 64% 30.04 in 10.0 mi West 5.8 mph - N/A   Clear
2:50 PM 69.8 °F 57.2 °F 64% 30.04 in 10.0 mi Variable 4.6 mph - N/A   Clear
3:15 PM 66.2 °F 57.2 °F 73% 30.04 in 10.0 mi NW 8.1 mph - N/A   Clear
3:35 PM 66.2 °F 55.4 °F 68% 30.04 in 10.0 mi North 8.1 mph - N/A   Clear
3:55 PM 64.4 °F 55.4 °F 73% 30.04 in 10.0 mi NW 8.1 mph - N/A   Clear
4:15 PM 64.4 °F 55.4 °F 73% 30.05 in 10.0 mi NW 5.8 mph - N/A   Clear
4:35 PM 62.6 °F 55.4 °F 77% 30.05 in 10.0 mi NW 6.9 mph 12.7 mph N/A   Clear
4:55 PM 62.6 °F 55.4 °F 77% 30.06 in 10.0 mi Variable 3.5 mph - N/A   Clear
5:15 PM 60.8 °F 55.4 °F 82% 30.06 in 10.0 mi Calm Calm - N/A   Clear
5:35 PM 59.0 °F 53.6 °F 82% 30.06 in 10.0 mi NNW 4.6 mph - N/A   Clear
5:55 PM 57.2 °F 53.6 °F 88% 30.06 in 10.0 mi Calm Calm - N/A   Clear
6:15 PM 55.4 °F 53.6 °F 94% 30.07 in 10.0 mi Calm Calm - N/A   Clear
6:35 PM 55.4 °F 53.6 °F 94% 30.08 in 10.0 mi NW 4.6 mph - N/A   Mostly Cloudy
6:55 PM 55.4 °F 53.6 °F 94% 30.09 in 10.0 mi NW 4.6 mph - N/A   Overcast
7:15 PM 55.4 °F 53.6 °F 94% 30.09 in 10.0 mi Calm Calm - N/A   Overcast
7:35 PM 55.4 °F 53.6 °F 94% 30.09 in 10.0 mi Calm Calm - N/A   Overcast
7:55 PM 55.4 °F 53.6 °F 94% 30.09 in 6.0 mi Calm Calm - N/A   Overcast
8:15 PM 55.4 °F 53.6 °F 94% 30.10 in 5.0 mi Calm Calm - N/A   Overcast
8:35 PM 55.4 °F 53.6 °F 94% 30.10 in 0.8 mi Calm Calm - N/A   Overcast
8:55 PM 55.4 °F 53.6 °F 94% 30.10 in 0.2 mi Calm Calm - N/A Fog Fog
9:15 PM 53.6 °F 53.6 °F 100% 30.10 in 0.2 mi Calm Calm - N/A Fog Fog
9:35 PM 53.6 °F 53.6 °F 100% 30.10 in 0.2 mi Calm Calm - N/A Fog Fog
9:55 PM 53.6 °F 53.6 °F 100% 30.10 in 0.2 mi Calm Calm - N/A Fog Fog
10:15 PM 53.6 °F 53.6 °F 100% 30.10 in 0.2 mi Calm Calm - N/A Fog Fog
10:55 PM 53.6 °F 53.6 °F 100% 30.10 in 0.2 mi SSW 4.6 mph - N/A Fog Fog
11:15 PM 53.6 °F 53.6 °F 100% 30.10 in 0.2 mi SSE 4.6 mph - N/A Fog Fog
11:35 PM 53.6 °F 53.6 °F 100% 30.09 in 0.2 mi Calm Calm - N/A Fog Fog
11:55 PM 53.6 °F 53.6 °F 100% 30.09 in 0.2 mi SE 4.6 mph - N/A Fog Fog